Regional Weather Roundup
Issued by NWS

Home | Current Version | Previous Version | Graphics & Text | Print | Product List | Glossary On
Versions: 1 2 3 4 5 6 7 8 9 10 11 12 13 14 15 16 17 18 19 20 21 22 23 24 25 26 27 28 29 30 31 32 33 34 35 36 37 38 39 40 41 42 43 44 45 46 47 48 49 50
000
ASUS43 KOAX 201302
RWRNE

WEATHER ROUNDUP FOR NEBRASKA
NATIONAL WEATHER SERVICE OMAHA NE
800 AM CDT SUN APR 20 2014

NOTES: SATELLITE DATA IS BEING USED TO AUGMENT CLOUD COVER ABOVE
       12000 FEET.
       "FAIR" INDICATES FEW OR NO CLOUDS BELOW 12,000 FEET WITH NO
       SIGNIFICANT WEATHER AND/OR OBSTRUCTIONS TO VISIBILITY.

  * THESE STATIONS DO NOT REPORT WEATHER SUCH AS RAIN...SNOW OR FOG.

NEZ001>004-019>022-054>056-201400-
NEBRASKA PANHANDLE

CITY           SKY/WX    TMP DP  RH WIND       PRES   REMARKS
SCOTTSBLUFF    CLEAR     43  36  76 E5        29.99S
ALLIANCE       CLEAR     42  38  85 S9        29.98R
CHADRON        CLEAR     48  40  73 SW7       29.94R
KIMBALL        CLEAR     42  38  87 W8        30.02R
SIDNEY         CLEAR     41  36  82 W5        30.02R
$$

NEZ057>060-069>072-079>082-201400-
SOUTHWEST NEBRASKA

CITY           SKY/WX    TMP DP  RH WIND       PRES   REMARKS
NORTH PLATTE   MOSUNNY   41  38  89 CALM      30.00S
IMPERIAL       PTSUNNY   44  40  85 N6        30.01S
LEXINGTON      MOSUNNY   48  43  84 NW9       29.99F
MCCOOK         CLOUDY    50  46  86 CALM      29.99R
OGALLALA       SUNNY     38  35  87 CALM      30.03R
$$

NEZ005>010-023>029-035>040-094-201400-
NORTH CENTRAL NEBRASKA

CITY           SKY/WX    TMP DP  RH WIND       PRES   REMARKS
VALENTINE      SUNNY     39  28  64 NW5       30.00S
AINSWORTH      SUNNY     44  33  65 CALM      30.01R
BROKEN BOW     SUNNY     49  36  61 N9        29.99S
O`NEILL        SUNNY     44  33  64 CALM      30.00R
ORD            PTSUNNY   48  35  60 NW5       29.98R
THEDFORD       SUNNY     43  37  82 CALM      30.01F
$$

NEZ041-046>049-061>064-073>077-083>087-201400-
SOUTH CENTRAL NEBRASKA

CITY           SKY/WX    TMP DP  RH WIND       PRES   REMARKS
GRAND ISLAND   MOSUNNY   54  47  77 W6        29.98S
AURORA         MOSUNNY   57  52  82 W7        29.97S
HASTINGS       PTSUNNY   55  47  74 NW3       29.98R
HEBRON         PTSUNNY   61  50  68 S16       29.99R
HOLDREGE       PTSUNNY   52  46  81 N3        29.99R
KEARNEY *      PTSUNNY   52  43  71 NW6       29.98F
YORK           MOSUNNY   57  50  77 SW3       29.98R
$$

NEZ011>018-030>034-042>045-201400-
NORTHEAST NEBRASKA

CITY           SKY/WX    TMP DP  RH WIND       PRES   REMARKS
NORFOLK        PTSUNNY   52  44  74 CALM      29.96S
ALBION         MOSUNNY   50  40  67 S3        29.99R
BLAIR          MOSUNNY   61  47  60 S8        29.98R
COLUMBUS *     MOSUNNY   57  46  67 CALM      29.98R
FREMONT        MOSUNNY   62  48  61 S5        29.98R
TEKAMAH        PTSUNNY   62  48  60 S6        29.98R
$$

NEZ050>053-065>068-078-088>093-201400-
SOUTHEAST NEBRASKA

CITY           SKY/WX    TMP DP  RH WIND       PRES   REMARKS
LINCOLN        MOSUNNY   64  49  57 SW12      29.98R
OMAHA EPPLEY   PTSUNNY   63  48  58 SE10      29.98S
BEATRICE       MOSUNNY   63  49  61 S13       29.99S
FALLS CITY     MOSUNNY   60  49  66 S9        30.02S
NEBRASKA CITY  MOSUNNY   64  49  58 S18       30.00S
PLATTSMOUTH    PTSUNNY   64  47  53 S8        30.00R
$$

NEZ044-045-051>053-067-201400-
OMAHA AREA

CITY           SKY/WX    TMP DP  RH WIND       PRES   REMARKS
OMAHA EPPLEY   PTSUNNY   63  48  58 SE10      29.98S
BLAIR          MOSUNNY   61  47  60 S8        29.98R
FREMONT        MOSUNNY   62  48  61 S5        29.98R
MILLARD        MOSUNNY   59  48  66 CALM      29.98S
OFFUTT AFB     MOSUNNY   64  50  61 S7        29.99S
PLATTSMOUTH    PTSUNNY   64  47  53 S8        30.00R
WAHOO          FAIR      60  48  63 S5        29.98R
$$



USA.gov is the U.S. government's official web portal to all federal, state and local government web resources and services.